Flag for Spain Weather past 2 weeks in Santa Cruz de Tenerife, Canary Islands, Spain

Now
68 °F

Scattered clouds.


Feels Like: 68 °F
Forecast: 75 / 78 °F
Wind: 15 mph from Northwest

Location: Tenerife / Los Rodeos

Current Time: Sep 18, 2014 at 11:46:42 AM

Latest Report: Sep 18, 2014 at 11:00 AM


Visibility: N/A

Pressure: 30.07 "Hg

Humidity: 78%

Dew point: 61 °F

Location of Santa Cruz de TenerifeLocation

Historic Weather in Santa Cruz de Tenerife — Graph

°F

Santa Cruz de Tenerife temperature yesterday

Maximum temperature yesterday: 75 °F (at 1:30 PM)
Minimum temperature yesterday: 64 °F (at 6:00 AM)
Average temperature yesterday: 70 °F

Past Weeks' High & Low Weather Summary

 TemperatureHumidityPressure
High79 °F (Sep 5, 3:30 PM)100% (Sep 3, 9:30 PM)30.21 "Hg (Sep 3, 9:30 PM)
Low63 °F (Sep 4, 7:30 AM)50% (Sep 13, 6:00 PM)29.95 "Hg (Sep 16, 6:00 AM)
Average71 °F81%30.09 "Hg
* Reported Sep 3 10:00 AM — Sep 18 10:30 AM, Santa Cruz de Tenerife, Weather by CustomWeather, © 2014

Note: Actual official high and low records may vary slightly from our data, if they occured in-between our weather recording intervals... More about our weather records

Advertising

Santa Cruz de Tenerife weather history for September 3, 2014

 ConditionsComfort  
Time TempWeatherWind HumidityBarometerVisibility
10:00 AM
Sep 3
68 °FPassing clouds.6 mph88%30.09 "HgN/A
10:30 AM70 °FPassing clouds.2 mph78%30.09 "HgN/A
11:00 AM73 °FPassing clouds.1 mph69%30.09 "HgN/A
11:30 AM75 °FPassing clouds.2 mph65%30.09 "HgN/A
12:00 PM75 °FPassing clouds.5 mph65%30.09 "HgN/A
12:30 PM75 °FPassing clouds.3 mph69%30.09 "HgN/A
1:00 PM75 °FPassing clouds.2 mph69%30.09 "HgN/A
1:30 PM75 °FPassing clouds.6 mph65%30.09 "HgN/A
2:00 PM77 °FPassing clouds.7 mph65%30.09 "HgN/A
2:30 PM75 °FPassing clouds.9 mph61%30.09 "HgN/A
3:00 PM75 °FPassing clouds.7 mph61%30.09 "HgN/A
3:30 PM77 °FPassing clouds.8 mph54%30.09 "HgN/A
4:00 PM77 °FPassing clouds.10 mph54%30.07 "HgN/A
4:30 PM77 °FPassing clouds.10 mph54%30.07 "HgN/A
5:00 PM77 °FPassing clouds.10 mph54%30.07 "HgN/A
5:30 PM77 °FPassing clouds.10 mph57%30.07 "HgN/A
6:00 PM75 °FPassing clouds.12 mph61%30.07 "HgN/A
6:30 PM75 °FPassing clouds.12 mph65%30.09 "HgN/A
7:00 PM73 °FSunny.13 mph65%30.07 "Hg10 mi
7:30 PM73 °FPassing clouds.13 mph65%30.09 "HgN/A
8:00 PM72 °FPassing clouds.14 mph73%30.09 "HgN/A
8:30 PM70 °FPassing clouds.13 mph78%30.09 "HgN/A
9:00 PM68 °FPassing clouds.8 mph88%30.09 "HgN/A
9:30 PM68 °FPassing clouds.12 mph100%30.09 "HgN/A
10:00 PM68 °FPassing clouds.14 mph100%30.09 "HgN/A
10:30 PM66 °FPassing clouds.14 mph100%30.09 "HgN/A
11:00 PM66 °FPassing clouds.15 mph94%30.12 "HgN/A
Weather by CustomWeather, © 2014

See weather overviewHow to use our weather pages